Погода в Солянке

Россия / Тюменская область     59°26′02″N   68°58′40″E
темп.,
°C
ветер,
м/с
пор.,
м/с
влажн.,
%
обл.,
%
осадки,
мм/ч
давл.,
гПа
погр.,
м
21 апреля, ср
ср2123:00+2с389397 0.4 1023556
02:00−4ссз249824 0.0 102568
05:00−5ссз259825 0.0 1028102
08:000ссв35745 0.0 1029596
11:00+3с34575 0.0 1031970
14:00+5с34525 0.0 10321180
17:00+5ссв33535 0.0 10341112
20:00−2ссв11880 0.0 103610
22 апреля, чт
чт2223:00−4юв22943 0.0 103744
02:00−3ю28895 0.0 1038144
05:00−3ююв28875 0.0 1039158
08:00+3ю476357 0.0 1040403
11:00+7ю465024 0.0 10401088
14:00+9ю57455 0.0 10391405
17:00+9ю47495 0.0 10381419
20:00+4ююв311715 0.0 1038216
23 апреля, пт
пт2323:00+3ююв51467100 0.0 1038395
02:00+2ю51467100 0.0 1037373
05:00+2ю51468100 0.0 1036366
08:00+5ю5135991 0.0 1036487
11:00+10ю5846100 0.0 1036817
14:00+13ю6842100 0.0 10341392
17:00+13ююз4848100 0.0 10341538
20:00+10ю41060100 0.0 1033361
24 апреля, сб
сб2423:00+9ю41163100 0.0 1033385
02:00+7ю41166100 0.0 1033412
05:00+5ю3969100 0.0 1032270
08:00+7ю4855100 0.0 1031392
11:00+11ю4640100 0.0 1030930
14:00+12ююз4635100 0.0 10291577
17:00+11ююз4639100 0.0 10291349
20:00+8ююз2654100 0.0 1028146
25 апреля, вс
вс2523:00+7юз3860100 0.0 1028390
02:00+6ю2267100 0.0 102758
05:00+5вюв3767100 0.0 1026161
08:00+8юв3654100 0.0 1024320
11:00+11ююв4739100 0.0 1023905
14:00+13ююв5732100 0.0 10211769
17:00+13ююв5835100 0.0 10202254
20:00+9юв3747100 0.0 1019178